Gunnison, CO

6:04 PM MDT on July 20, 2017 (GMT -0600)
Gunnison County

Weather History for KGUC - October, 2014

Change the Weather History Date:

Wednesday, October 1, 2014

  Actual Average Record
Temperature  
Mean Temperature 42 °F -  
Max Temperature 51 °F 62 °F 78 °F (2010)
Min Temperature 32 °F 29 °F 19 °F (2007)
Degree Days  
Heating Degree Days 24    
Moisture  
Dew Point 33 °F    
Average Humidity 75    
Maximum Humidity 87    
Minimum Humidity 50    
Precipitation  
Precipitation 0.01 in - - ()
Sea Level Pressure  
Sea Level Pressure 30.08 in    
Wind  
Wind Speed 3 mph (WSW)    
Max Wind Speed 17 mph    
Max Gust Speed 28 mph    
Visibility 9 miles    
Events      
Averages and records for this station are not official NWS values.
T = Trace of Precipitation, MM = Missing Value Source: NWS Daily Summary

Daily Weather History Graph

Daily Weather History Graph

Search for Another Location

Airport or City:

Trip Planner

Search our weather history database for the weather conditions in past years. The results will help you decide how hot, cold, wet, or windy it might be!

Date:

Astronomy

Oct. 01, 2014 Rise Set
Actual Time 7:03 AM MDT 6:50 PM MDT
Civil Twilight 6:37 AM MDT 7:16 PM MDT
Nautical Twilight 6:06 AM MDT 7:47 PM MDT
Astronomical Twilight 5:35 AM MDT 8:18 PM MDT
Moon 2:03 PM MDT (10/1) No Moon Set
Length of Visible Light 12h 39m
Length of Day
11h 46m
Waxing Crescent, 49% of the Moon is Illuminated
Oct 1
Waxing Crescent
Oct 1
First Quarter
Oct 8
Full
Oct 15
Last Quarter
Oct 23
New

Hourly Weather History & Observations

Time (MDT) Temp. Windchill Dew Point Humidity Pressure Visibility Wind Dir Wind Speed Gust Speed Precip Events Conditions
12:15 AM 37.4 °F - 32.0 °F 81% 30.08 in 10.0 mi Calm Calm - N/A   Clear
12:35 AM 35.6 °F - 32.0 °F 87% 30.08 in 10.0 mi Calm Calm - N/A   Clear
12:55 AM 39.2 °F 35.9 °F 33.8 °F 81% 30.14 in 10.0 mi North 4.6 mph - N/A   Mostly Cloudy
1:15 AM 39.2 °F - 33.8 °F 81% 30.14 in 10.0 mi Calm Calm - N/A   Overcast
1:35 AM 35.6 °F - 30.2 °F 81% 30.08 in 10.0 mi Calm Calm - N/A   Clear
1:55 AM 37.4 °F - 33.8 °F 87% 30.13 in 10.0 mi Calm Calm - N/A   Mostly Cloudy
2:15 AM 33.8 °F - 28.4 °F 81% 30.08 in 10.0 mi Calm Calm - N/A   Clear
2:35 AM 33.8 °F - 28.4 °F 81% 30.08 in 10.0 mi Calm Calm - N/A   Clear
2:55 AM 32.0 °F - 26.6 °F 80% 30.08 in 2.5 mi Calm Calm - N/A   Clear
3:15 AM 33.8 °F - 28.4 °F 81% 30.08 in 7.0 mi Calm Calm - N/A   Partly Cloudy
3:35 AM 32.0 °F - 28.4 °F 87% 30.08 in 10.0 mi Calm Calm - N/A   Mostly Cloudy
3:55 AM 32.0 °F - 28.4 °F 87% 30.07 in 4.0 mi Calm Calm - N/A   Mostly Cloudy
4:15 AM 32.0 °F - 28.4 °F 87% 30.07 in 1.0 mi Calm Calm - N/A   Overcast
4:35 AM 33.8 °F 30.8 °F 30.2 °F 87% 30.06 in 5.0 mi ENE 3.5 mph - N/A   Overcast
4:55 AM 33.8 °F - 28.4 °F 81% 30.06 in 10.0 mi Calm Calm - N/A   Mostly Cloudy
5:15 AM 33.8 °F - 30.2 °F 87% 30.06 in 10.0 mi Calm Calm - N/A   Mostly Cloudy
5:55 AM 33.8 °F - 28.4 °F 81% 30.06 in 10.0 mi Calm Calm - N/A   Mostly Cloudy
6:55 AM 33.8 °F - 30.2 °F 87% 30.06 in 5.0 mi Calm Calm - N/A   Mostly Cloudy
7:15 AM 33.8 °F 30.8 °F 30.2 °F 87% 30.06 in 8.0 mi West 3.5 mph - N/A   Mostly Cloudy
7:35 AM 33.8 °F - 30.2 °F 87% 30.11 in 10.0 mi Calm Calm - N/A   Mostly Cloudy
7:55 AM 33.8 °F - 30.2 °F 87% 30.07 in 10.0 mi Calm Calm - N/A   Mostly Cloudy
8:15 AM 37.4 °F - 32.0 °F 81% 30.11 in 10.0 mi Calm Calm - N/A   Mostly Cloudy
8:35 AM 37.4 °F - 33.8 °F 87% 30.11 in 10.0 mi Calm Calm - N/A   Overcast
8:55 AM 37.4 °F - 33.8 °F 87% 30.12 in 10.0 mi Calm Calm - N/A   Overcast
9:15 AM 37.4 °F - 33.8 °F 87% 30.06 in 10.0 mi Calm Calm - N/A   Mostly Cloudy
9:35 AM 39.2 °F - 33.8 °F 81% 30.06 in 10.0 mi Calm Calm - N/A   Scattered Clouds
9:55 AM 39.2 °F - 33.8 °F 81% 30.06 in 10.0 mi Calm Calm - N/A   Mostly Cloudy
10:15 AM 41.0 °F - 35.6 °F 81% 30.06 in 10.0 mi Calm Calm - N/A   Overcast
10:35 AM 42.8 °F - 35.6 °F 76% 30.06 in 10.0 mi Calm Calm - N/A   Overcast
10:55 AM 42.8 °F - 35.6 °F 76% 30.07 in 10.0 mi Calm Calm - N/A   Overcast
11:15 AM 44.6 °F - 35.6 °F 71% 30.06 in 10.0 mi Calm Calm - N/A   Mostly Cloudy
11:35 AM 46.4 °F 44.3 °F 35.6 °F 66% 30.05 in 10.0 mi SSE 4.6 mph - N/A   Scattered Clouds
11:55 AM 46.4 °F 42.9 °F 33.8 °F 62% 30.10 in 10.0 mi North 6.9 mph - N/A   Overcast
12:15 PM 50.0 °F - 37.4 °F 62% 30.05 in 10.0 mi SW 10.4 mph 16.1 mph N/A   Scattered Clouds
12:35 PM 50.0 °F - 37.4 °F 62% 30.04 in 10.0 mi SW 11.5 mph 18.4 mph N/A   Mostly Cloudy
12:55 PM 51.8 °F - 33.8 °F 50% 30.04 in 10.0 mi West 17.3 mph 23.0 mph N/A   Mostly Cloudy
1:15 PM 44.6 °F 38.8 °F 33.8 °F 66% 30.07 in 9.0 mi WSW 11.5 mph 29.9 mph N/A   Overcast
1:35 PM 42.8 °F 37.0 °F 33.8 °F 70% 30.06 in 10.0 mi SW 10.4 mph 17.3 mph 0.01 in   Mostly Cloudy
1:55 PM 42.8 °F 35.4 °F 35.6 °F 76% 30.06 in 10.0 mi SW 15.0 mph - 0.01 in   Scattered Clouds
2:15 PM 42.8 °F 36.2 °F 35.6 °F 76% 30.05 in 10.0 mi SW 12.7 mph 19.6 mph N/A   Scattered Clouds
2:35 PM 50.0 °F - 33.8 °F 54% 30.05 in 10.0 mi Calm Calm - N/A   Overcast
2:55 PM 50.0 °F - 33.8 °F 54% 30.05 in 10.0 mi Calm Calm - N/A   Overcast
3:15 PM 48.2 °F - 32.0 °F 54% 30.06 in 10.0 mi North 4.6 mph - N/A   Overcast
3:35 PM 48.2 °F - 37.4 °F 66% 30.04 in 10.0 mi SW 12.7 mph 17.3 mph N/A   Scattered Clouds
3:55 PM 48.2 °F - 33.8 °F 58% 30.04 in 10.0 mi SSW 11.5 mph - N/A   Mostly Cloudy
4:15 PM 48.2 °F - 33.8 °F 58% 30.03 in 10.0 mi SW 13.8 mph 17.3 mph N/A   Partly Cloudy
4:35 PM 48.2 °F - 35.6 °F 62% 30.03 in 10.0 mi SSW 11.5 mph - N/A   Clear
4:55 PM 51.8 °F - 33.8 °F 50% 30.04 in 10.0 mi WSW 8.1 mph - N/A   Overcast
5:15 PM 48.2 °F - 33.8 °F 58% 30.05 in 7.0 mi West 17.3 mph 21.9 mph N/A   Overcast
5:35 PM 46.4 °F 44.3 °F 35.6 °F 66% 30.04 in 10.0 mi WNW 4.6 mph - N/A   Mostly Cloudy
5:55 PM 44.6 °F 37.4 °F 33.8 °F 66% 30.07 in 9.0 mi SW 16.1 mph 27.6 mph N/A   Mostly Cloudy
6:15 PM 42.8 °F 37.0 °F 35.6 °F 76% 30.08 in 10.0 mi SW 10.4 mph 17.3 mph N/A   Mostly Cloudy
6:35 PM 42.8 °F 40.1 °F 35.6 °F 76% 30.08 in 10.0 mi West 4.6 mph - N/A   Mostly Cloudy
6:55 PM 42.8 °F 37.5 °F 33.8 °F 70% 30.09 in 10.0 mi South 9.2 mph - N/A   Overcast
7:15 PM 42.8 °F 38.0 °F 32.0 °F 66% 30.10 in 10.0 mi SW 8.1 mph - N/A   Mostly Cloudy
7:35 PM 42.8 °F 37.5 °F 32.0 °F 66% 30.10 in 10.0 mi SW 9.2 mph - N/A   Clear
7:55 PM 41.0 °F 34.7 °F 32.0 °F 70% 30.11 in 10.0 mi SSW 10.4 mph - N/A   Partly Cloudy
8:15 PM 41.0 °F 35.8 °F 32.0 °F 70% 30.12 in 10.0 mi SSW 8.1 mph - N/A   Clear
8:35 PM 41.0 °F 38.0 °F 32.0 °F 70% 30.13 in 10.0 mi SSW 4.6 mph - N/A   Scattered Clouds
8:55 PM 39.2 °F 35.9 °F 32.0 °F 75% 30.14 in 10.0 mi WNW 4.6 mph - N/A   Mostly Cloudy
9:15 PM 39.2 °F 32.5 °F 32.0 °F 75% 30.15 in 10.0 mi NNE 10.4 mph - N/A   Partly Cloudy
9:35 PM 42.8 °F - 35.6 °F 76% 30.08 in 10.0 mi Calm Calm - N/A   Mostly Cloudy
9:55 PM 37.4 °F - 30.2 °F 75% 30.15 in 10.0 mi Calm Calm - N/A   Clear
10:15 PM 37.4 °F 34.9 °F 30.2 °F 75% 30.16 in 10.0 mi NW 3.5 mph - N/A   Mostly Cloudy
10:35 PM 37.4 °F - 30.2 °F 75% 30.17 in 10.0 mi Calm Calm - N/A   Overcast
10:55 PM 37.4 °F - 30.2 °F 75% 30.16 in 10.0 mi Calm Calm - N/A   Overcast
11:15 PM 37.4 °F - 32.0 °F 81% 30.17 in 10.0 mi Calm Calm - N/A   Scattered Clouds
11:35 PM 37.4 °F - 32.0 °F 81% 30.16 in 10.0 mi Calm Calm - N/A   Mostly Cloudy
11:55 PM 37.4 °F 34.9 °F 32.0 °F 81% 30.16 in 10.0 mi NW 3.5 mph - N/A   Overcast